When you browse on this site, cookies collect data to enhance your experience and personalize the content and advertising you see.
Visit our Privacy Policy to learn more. By continuing to use the site, you agree to this use of cookies and data.
EN

Hourly Weather Diamond Harbour

Today, 4 August, Tuesday

Time Temperature Precipitation Wind Pressure Humidity
00:00 +32°C° 0 mm 2 mps 745 mmHg 80%
01:00 +32°C° 1.3 mm 2 mps 744 mmHg 79%
02:00 +32°C° 1.3 mm 1 mps 744 mmHg 79%
03:00 +32°C° 1.3 mm 1 mps 743 mmHg 79%
04:00 +31°C° 1.2 mm 2 mps 743 mmHg 80%
05:00 +31°C° 1.2 mm 2 mps 744 mmHg 81%
06:00 +31°C° 0 mm 3 mps 744 mmHg 84%
07:00 +31°C° 1 mm 3 mps 744 mmHg 84%
08:00 +31°C° 1 mm 3 mps 744 mmHg 84%
09:00 +32°C° 1 mm 4 mps 744 mmHg 85%
10:00 +31°C° 0.8 mm 3 mps 744 mmHg 84%
11:00 +31°C° 0.8 mm 2 mps 744 mmHg 83%
12:00 +30°C° 0 mm 3 mps 744 mmHg 86%
13:00 +31°C° 0.5 mm 3 mps 743 mmHg 83%
14:00 +33°C° 0.5 mm 3 mps 743 mmHg 79%
15:00 +33°C° 0.5 mm 3 mps 742 mmHg 75%
16:00 +33°C° 1.5 mm 3 mps 742 mmHg 76%
17:00 +33°C° 1.5 mm 3 mps 742 mmHg 78%
18:00 +33°C° 1.5 mm 3 mps 742 mmHg 79%
19:00 +31°C° 0.7 mm 3 mps 742 mmHg 81%
20:00 +31°C° 0.7 mm 3 mps 743 mmHg 82%
21:00 +31°C° 0.7 mm 3 mps 743 mmHg 84%
22:00 +30°C° 0 mm 3 mps 743 mmHg 86%
23:00 +30°C° 0 mm 4 mps 743 mmHg 87%

Tomorrow, 5 August, Wednesday

Time Temperature Precipitation Wind Pressure Humidity
00:00 +30°C° 0 mm 4 mps 743 mmHg 88%
01:00 +30°C° 0 mm 4 mps 743 mmHg 88%
02:00 +30°C° 0 mm 4 mps 742 mmHg 88%
03:00 +29°C° 0 mm 4 mps 742 mmHg 88%
04:00 +30°C° 0.6 mm 5 mps 742 mmHg 87%
05:00 +30°C° 0.6 mm 6 mps 742 mmHg 86%
06:00 +30°C° 0.6 mm 7 mps 742 mmHg 84%
07:00 +32°C° 0.3 mm 8 mps 742 mmHg 81%
08:00 +33°C° 0.3 mm 8 mps 742 mmHg 79%
09:00 +34°C° 0.3 mm 8 mps 743 mmHg 76%
10:00 +34°C° 0.1 mm 9 mps 743 mmHg 73%
11:00 +36°C° 0.1 mm 11 mps 743 mmHg 70%
12:00 +36°C° 0.1 mm 12 mps 743 mmHg 67%
13:00 +36°C° 0.3 mm 12 mps 743 mmHg 69%
14:00 +36°C° 0.3 mm 11 mps 743 mmHg 70%
15:00 +34°C° 0.3 mm 11 mps 742 mmHg 72%
16:00 +34°C° 0.5 mm 10 mps 743 mmHg 74%
17:00 +33°C° 0.5 mm 9 mps 743 mmHg 77%
18:00 +32°C° 0.5 mm 8 mps 744 mmHg 79%
19:00 +32°C° 0.2 mm 7 mps 745 mmHg 80%
20:00 +32°C° 0.2 mm 7 mps 746 mmHg 80%
21:00 +30°C° 0.2 mm 6 mps 747 mmHg 80%
22:00 +30°C° 0.1 mm 5 mps 747 mmHg 81%
23:00 +30°C° 0.1 mm 5 mps 747 mmHg 82%

Day after tomorrow, 6 August, Thursday

Time Temperature Precipitation Wind Pressure Humidity
00:00 +30°C° 0.1 mm 4 mps 748 mmHg 83%
01:00 +30°C° 0.2 mm 3 mps 748 mmHg 84%
02:00 +30°C° 0.2 mm 3 mps 748 mmHg 85%
03:00 +30°C° 0.2 mm 3 mps 748 mmHg 86%
04:00 +30°C° 0.2 mm 2 mps 748 mmHg 86%
05:00 +30°C° 0.2 mm 2 mps 748 mmHg 86%
06:00 +30°C° 0.2 mm 2 mps 748 mmHg 86%
07:00 +31°C° 0.2 mm 3 mps 749 mmHg 81%
08:00 +33°C° 0.2 mm 3 mps 749 mmHg 76%
09:00 +34°C° 0.2 mm 3 mps 750 mmHg 71%
10:00 +35°C° 0.1 mm 4 mps 750 mmHg 68%
11:00 +36°C° 0.1 mm 4 mps 750 mmHg 65%
12:00 +36°C° 0.1 mm 4 mps 750 mmHg 63%
13:00 +36°C° 0 mm 5 mps 749 mmHg 64%
14:00 +36°C° 0 mm 5 mps 749 mmHg 65%
15:00 +36°C° 0 mm 6 mps 748 mmHg 66%
16:00 +35°C° 0.1 mm 6 mps 748 mmHg 69%
17:00 +34°C° 0.1 mm 5 mps 748 mmHg 73%
18:00 +33°C° 0.1 mm 5 mps 748 mmHg 76%
19:00 +33°C° 0 mm 5 mps 749 mmHg 78%
20:00 +33°C° 0 mm 5 mps 750 mmHg 79%
21:00 +32°C° 0 mm 4 mps 750 mmHg 80%
22:00 +32°C° 0 mm 4 mps 750 mmHg 81%
23:00 +32°C° 0 mm 4 mps 750 mmHg 81%

7 August, Friday

Time Temperature Precipitation Wind Pressure Humidity
00:00 +32°C° 0 mm 4 mps 750 mmHg 82%
01:00 +32°C° 0 mm 4 mps 750 mmHg 82%
02:00 +32°C° 0 mm 4 mps 750 mmHg 82%
03:00 +31°C° 0 mm 3 mps 749 mmHg 83%
04:00 +30°C° 0 mm 3 mps 749 mmHg 83%
05:00 +30°C° 0 mm 3 mps 750 mmHg 84%
06:00 +30°C° 0 mm 2 mps 750 mmHg 85%
07:00 +30°C° 0.8 mm 2 mps 750 mmHg 84%
08:00 +31°C° 0.8 mm 3 mps 750 mmHg 84%
09:00 +31°C° 0.8 mm 3 mps 751 mmHg 83%
10:00 +31°C° 0 mm 3 mps 751 mmHg 79%
11:00 +33°C° 0 mm 3 mps 750 mmHg 76%
12:00 +34°C° 0 mm 4 mps 750 mmHg 72%
13:00 +34°C° 0 mm 3 mps 749 mmHg 70%
14:00 +35°C° 0 mm 3 mps 749 mmHg 68%
15:00 +35°C° 0 mm 3 mps 748 mmHg 66%
16:00 +35°C° 0 mm 3 mps 748 mmHg 66%
17:00 +35°C° 0 mm 3 mps 748 mmHg 67%
18:00 +35°C° 0 mm 3 mps 747 mmHg 67%
19:00 +34°C° 0 mm 3 mps 748 mmHg 71%
20:00 +33°C° 0 mm 3 mps 749 mmHg 75%
21:00 +31°C° 0 mm 3 mps 749 mmHg 80%
22:00 +31°C° 0.1 mm 3 mps 749 mmHg 81%
23:00 +31°C° 0.1 mm 2 mps 749 mmHg 83%

8 August, Saturday

Time Temperature Precipitation Wind Pressure Humidity
00:00 +31°C° 0.1 mm 2 mps 749 mmHg 84%
01:00 +31°C° 0.3 mm 2 mps 749 mmHg 84%
02:00 +31°C° 0.3 mm 1 mps 748 mmHg 83%
03:00 +31°C° 0.3 mm 1 mps 748 mmHg 83%
04:00 +31°C° 0 mm 1 mps 748 mmHg 82%
05:00 +31°C° 0 mm 1 mps 748 mmHg 82%
06:00 +31°C° 0 mm 1 mps 748 mmHg 82%
07:00 +32°C° 0 mm 1 mps 748 mmHg 76%
08:00 +34°C° 0 mm 2 mps 748 mmHg 70%
09:00 +35°C° 0 mm 2 mps 749 mmHg 65%
10:00 +36°C° 0 mm 2 mps 748 mmHg 61%
11:00 +37°C° 0 mm 3 mps 748 mmHg 58%
12:00 +37°C° 0 mm 3 mps 748 mmHg 54%
13:00 +37°C° 0 mm 4 mps 747 mmHg 55%
14:00 +37°C° 0 mm 4 mps 746 mmHg 55%
15:00 +37°C° 0 mm 5 mps 746 mmHg 56%
16:00 +36°C° 0 mm 5 mps 746 mmHg 60%
17:00 +36°C° 0 mm 5 mps 746 mmHg 63%
18:00 +35°C° 0 mm 5 mps 746 mmHg 67%
19:00 +34°C° 0 mm 4 mps 746 mmHg 71%
20:00 +33°C° 0 mm 4 mps 747 mmHg 75%
21:00 +33°C° 0 mm 4 mps 748 mmHg 78%
22:00 +33°C° 0 mm 4 mps 748 mmHg 80%
23:00 +32°C° 0 mm 4 mps 748 mmHg 81%

9 August, Sunday

Time Temperature Precipitation Wind Pressure Humidity
00:00 +32°C° 0 mm 4 mps 747 mmHg 83%
01:00 +32°C° 0 mm 4 mps 747 mmHg 84%
02:00 +31°C° 0 mm 3 mps 747 mmHg 84%
03:00 +31°C° 0 mm 3 mps 746 mmHg 85%
04:00 +31°C° 0.2 mm 3 mps 746 mmHg 86%
05:00 +30°C° 0.2 mm 3 mps 746 mmHg 86%
06:00 +30°C° 0.2 mm 3 mps 747 mmHg 87%
07:00 +32°C° 0.6 mm 4 mps 747 mmHg 82%
08:00 +33°C° 0.6 mm 4 mps 747 mmHg 78%
09:00 +34°C° 0.6 mm 5 mps 748 mmHg 74%
10:00 +35°C° 0.4 mm 5 mps 748 mmHg 70%
11:00 +36°C° 0.4 mm 5 mps 747 mmHg 67%
12:00 +36°C° 0.4 mm 5 mps 747 mmHg 64%
13:00 +36°C° 0.1 mm 5 mps 747 mmHg 64%
14:00 +36°C° 0.1 mm 5 mps 746 mmHg 65%
15:00 +36°C° 0.1 mm 6 mps 746 mmHg 65%
16:00 +35°C° 0 mm 6 mps 746 mmHg 68%
17:00 +35°C° 0 mm 5 mps 746 mmHg 71%
18:00 +34°C° 0 mm 5 mps 746 mmHg 74%
19:00 +33°C° 0 mm 5 mps 747 mmHg 77%
20:00 +33°C° 0 mm 5 mps 747 mmHg 79%
21:00 +32°C° 0 mm 4 mps 748 mmHg 81%
22:00 +32°C° 0.3 mm 4 mps 748 mmHg 82%
23:00 +32°C° 0.3 mm 4 mps 748 mmHg 83%
Show more